• In Hungary
  • List of Countries
  • For 7 days
  • Water Temperature
  • Satellite Maps
  • Weather Map
  • News
  • Weather Widgets
  • user-avatar
    Login

    Hourly Weather Ricany

    Today, 18 October, Wednesday

    Time Temperature Precipitation Wind Pressure Humidity
    00:00 +12°C° 0 mm 1 mps 732 mmHg 84%
    01:00 +12°C° 0 mm 1 mps 732 mmHg 87%
    02:00 +11°C° 0 mm 1 mps 731 mmHg 88%
    03:00 +11°C° 0 mm 1 mps 731 mmHg 89%
    04:00 +11°C° 0 mm 1 mps 730 mmHg 90%
    05:00 +11°C° 0 mm 1 mps 730 mmHg 91%
    06:00 +11°C° 0 mm 1 mps 730 mmHg 92%
    07:00 +10°C° 0 mm 1 mps 730 mmHg 90%
    08:00 +12°C° 0 mm 1 mps 730 mmHg 84%
    09:00 +13°C° 0 mm 1 mps 730 mmHg 79%
    10:00 +15°C° 0 mm 1 mps 730 mmHg 73%
    11:00 +16°C° 0 mm 1 mps 730 mmHg 69%
    12:00 +18°C° 0 mm 1 mps 730 mmHg 65%
    13:00 +16°C° 0 mm 1 mps 730 mmHg 65%
    14:00 +16°C° 0 mm 1 mps 729 mmHg 68%
    15:00 +16°C° 0 mm 1 mps 729 mmHg 70%
    16:00 +16°C° 0 mm 1 mps 729 mmHg 72%
    17:00 +14°C° 0 mm 0 mps 729 mmHg 76%
    18:00 +13°C° 0 mm 0 mps 729 mmHg 81%
    19:00 +11°C° 0 mm 0 mps 729 mmHg 86%
    20:00 +11°C° 0 mm 0 mps 729 mmHg 87%
    21:00 +12°C° 0 mm 1 mps 729 mmHg 88%
    22:00 +11°C° 0 mm 1 mps 729 mmHg 89%
    23:00 +11°C° 0 mm 1 mps 729 mmHg 89%

    Tomorrow, 19 October, Thursday

    Time Temperature Precipitation Wind Pressure Humidity
    00:00 +11°C° 0 mm 1 mps 729 mmHg 90%
    01:00 +11°C° 0 mm 1 mps 729 mmHg 90%
    02:00 +10°C° 0 mm 1 mps 729 mmHg 90%
    03:00 +10°C° 0 mm 1 mps 729 mmHg 90%
    04:00 +10°C° 0 mm 1 mps 729 mmHg 91%
    05:00 +10°C° 0 mm 1 mps 729 mmHg 90%
    06:00 +10°C° 0 mm 1 mps 729 mmHg 90%
    07:00 +9°C° 0 mm 1 mps 729 mmHg 90%
    08:00 +11°C° 0 mm 1 mps 730 mmHg 82%
    09:00 +13°C° 0 mm 1 mps 730 mmHg 75%
    10:00 +15°C° 0 mm 1 mps 730 mmHg 67%
    11:00 +16°C° 0 mm 1 mps 730 mmHg 63%
    12:00 +19°C° 0 mm 1 mps 730 mmHg 58%
    13:00 +20°C° 0 mm 1 mps 730 mmHg 53%
    14:00 +20°C° 0 mm 1 mps 730 mmHg 55%
    15:00 +17°C° 0 mm 0 mps 730 mmHg 58%
    16:00 +17°C° 0 mm 0 mps 730 mmHg 60%
    17:00 +15°C° 0 mm 0 mps 730 mmHg 65%
    18:00 +15°C° 0 mm 1 mps 730 mmHg 69%
    19:00 +13°C° 0 mm 1 mps 730 mmHg 74%
    20:00 +13°C° 0 mm 1 mps 730 mmHg 76%
    21:00 +12°C° 0 mm 1 mps 730 mmHg 77%
    22:00 +12°C° 0 mm 1 mps 730 mmHg 79%
    23:00 +12°C° 0 mm 1 mps 730 mmHg 80%

    Day after tomorrow, 20 October, Friday

    Time Temperature Precipitation Wind Pressure Humidity
    00:00 +11°C° 0 mm 1 mps 730 mmHg 81%
    01:00 +11°C° 0 mm 1 mps 730 mmHg 82%
    02:00 +11°C° 0 mm 1 mps 730 mmHg 83%
    03:00 +10°C° 0 mm 1 mps 730 mmHg 84%
    04:00 +10°C° 0 mm 1 mps 730 mmHg 84%
    05:00 +10°C° 0 mm 1 mps 730 mmHg 84%
    06:00 +10°C° 0 mm 1 mps 730 mmHg 84%
    07:00 +10°C° 0 mm 1 mps 730 mmHg 85%
    08:00 +12°C° 0 mm 1 mps 731 mmHg 78%
    09:00 +14°C° 0 mm 1 mps 731 mmHg 71%
    10:00 +15°C° 0 mm 1 mps 731 mmHg 64%
    11:00 +18°C° 0 mm 1 mps 731 mmHg 59%
    12:00 +19°C° 0 mm 1 mps 731 mmHg 55%
    13:00 +20°C° 0 mm 1 mps 731 mmHg 50%
    14:00 +20°C° 0 mm 1 mps 731 mmHg 54%
    15:00 +19°C° 0 mm 1 mps 731 mmHg 57%
    16:00 +19°C° 0 mm 1 mps 731 mmHg 61%
    17:00 +16°C° 0 mm 1 mps 731 mmHg 65%
    18:00 +15°C° 0 mm 1 mps 731 mmHg 70%
    19:00 +13°C° 0 mm 1 mps 731 mmHg 75%
    20:00 +13°C° 0 mm 1 mps 731 mmHg 77%
    21:00 +12°C° 0 mm 2 mps 732 mmHg 78%
    22:00 +12°C° 0 mm 2 mps 732 mmHg 80%
    23:00 +12°C° 0 mm 1 mps 732 mmHg 81%

    21 October, Saturday

    Time Temperature Precipitation Wind Pressure Humidity
    00:00 +12°C° 0 mm 1 mps 732 mmHg 81%
    01:00 +12°C° 0 mm 1 mps 732 mmHg 82%
    02:00 +11°C° 0 mm 1 mps 732 mmHg 83%
    03:00 +11°C° 0 mm 1 mps 732 mmHg 84%
    04:00 +11°C° 0 mm 1 mps 732 mmHg 86%
    05:00 +11°C° 0 mm 1 mps 732 mmHg 86%
    06:00 +10°C° 0 mm 1 mps 732 mmHg 86%
    07:00 +10°C° 0 mm 1 mps 732 mmHg 87%
    08:00 +12°C° 0 mm 1 mps 732 mmHg 81%
    09:00 +13°C° 0 mm 1 mps 732 mmHg 75%
    10:00 +15°C° 0 mm 2 mps 732 mmHg 69%
    11:00 +16°C° 0 mm 2 mps 732 mmHg 67%
    12:00 +17°C° 0 mm 2 mps 732 mmHg 64%
    13:00 +18°C° 0 mm 2 mps 731 mmHg 61%
    14:00 +17°C° 0 mm 2 mps 731 mmHg 64%
    15:00 +17°C° 0 mm 2 mps 731 mmHg 66%
    16:00 +17°C° 0 mm 2 mps 730 mmHg 69%
    17:00 +16°C° 0 mm 2 mps 730 mmHg 72%
    18:00 +15°C° 0 mm 2 mps 730 mmHg 76%
    19:00 +14°C° 0 mm 2 mps 730 mmHg 79%
    20:00 +13°C° 0 mm 2 mps 730 mmHg 80%
    21:00 +13°C° 0 mm 2 mps 730 mmHg 81%
    22:00 +13°C° 0 mm 2 mps 730 mmHg 82%
    23:00 +13°C° 0.1 mm 2 mps 730 mmHg 83%

    22 October, Sunday

    Time Temperature Precipitation Wind Pressure Humidity
    00:00 +13°C° 0.1 mm 2 mps 731 mmHg 83%
    01:00 +13°C° 0.1 mm 2 mps 731 mmHg 84%
    02:00 +13°C° 0.4 mm 2 mps 731 mmHg 86%
    03:00 +12°C° 0.4 mm 3 mps 731 mmHg 88%
    04:00 +11°C° 0.4 mm 3 mps 731 mmHg 89%
    05:00 +11°C° 0.7 mm 3 mps 731 mmHg 89%
    06:00 +11°C° 0.7 mm 3 mps 731 mmHg 90%
    07:00 +10°C° 0.7 mm 3 mps 731 mmHg 90%
    08:00 +10°C° 0.2 mm 3 mps 731 mmHg 86%
    09:00 +11°C° 0.2 mm 3 mps 731 mmHg 83%
    10:00 +11°C° 0.2 mm 4 mps 731 mmHg 80%
    11:00 +11°C° 0.1 mm 4 mps 731 mmHg 76%
    12:00 +11°C° 0.1 mm 4 mps 731 mmHg 73%
    13:00 +12°C° 0.1 mm 4 mps 731 mmHg 69%
    14:00 +11°C° 0 mm 4 mps 731 mmHg 70%
    15:00 +11°C° 0 mm 4 mps 730 mmHg 70%
    16:00 +10°C° 0 mm 3 mps 730 mmHg 71%
    17:00 +10°C° 0.1 mm 3 mps 730 mmHg 73%
    18:00 +9°C° 0.1 mm 3 mps 731 mmHg 75%
    19:00 +8°C° 0.1 mm 3 mps 731 mmHg 77%
    20:00 +8°C° 0 mm 3 mps 731 mmHg 78%
    21:00 +8°C° 0 mm 3 mps 731 mmHg 79%
    22:00 +7°C° 0 mm 3 mps 731 mmHg 80%
    23:00 +7°C° 0 mm 3 mps 731 mmHg 81%

    23 October, Monday

    Time Temperature Precipitation Wind Pressure Humidity
    00:00 +7°C° 0 mm 3 mps 731 mmHg 83%
    01:00 +5°C° 0 mm 3 mps 731 mmHg 84%
    02:00 +5°C° 0 mm 3 mps 731 mmHg 84%
    03:00 +5°C° 0 mm 3 mps 731 mmHg 85%
    04:00 +5°C° 0 mm 3 mps 731 mmHg 85%
    05:00 +5°C° 0 mm 3 mps 731 mmHg 85%
    06:00 +5°C° 0 mm 3 mps 731 mmHg 84%
    07:00 +7°C° 0 mm 3 mps 731 mmHg 84%
    08:00 +7°C° 0 mm 4 mps 731 mmHg 80%
    09:00 +7°C° 0 mm 4 mps 732 mmHg 77%
    10:00 +8°C° 0 mm 5 mps 732 mmHg 73%
    11:00 +8°C° 0.1 mm 5 mps 732 mmHg 73%
    12:00 +10°C° 0.1 mm 4 mps 732 mmHg 74%
    13:00 +10°C° 0.1 mm 4 mps 732 mmHg 74%
    14:00 +10°C° 0 mm 4 mps 732 mmHg 74%
    15:00 +10°C° 0 mm 4 mps 732 mmHg 73%
    16:00 +10°C° 0 mm 3 mps 733 mmHg 73%
    17:00 +10°C° 0.1 mm 3 mps 733 mmHg 76%
    18:00 +8°C° 0.1 mm 4 mps 733 mmHg 78%
    19:00 +8°C° 0.1 mm 4 mps 734 mmHg 81%
    20:00 +7°C° 0 mm 4 mps 734 mmHg 83%
    21:00 +8°C° 0 mm 3 mps 734 mmHg 85%
    22:00 +7°C° 0 mm 3 mps 735 mmHg 87%
    23:00 +7°C° 0 mm 3 mps 735 mmHg 88%
    Show more